Weather in Brecon

United Kingdom     51°56′52″N   3°23′20″W
temp.,
°C
wind,
m/s
gust,
m/s
humid.,
%
clouds,
%
prec.,
mm/h
press.,
hPa
HPBL,
m
18 may, tue
tue1801:00+5sw229643 0.0 101236
04:00+6sw2696100 0.0 1012245
07:00+6sw249592 0.0 1013175
10:00+9wsw4583100 0.4 10131075
13:00+11wsw4579100 1.4 10131177
16:00+11wsw5676100 1.2 10131248
19:00+9wsw5788100 2.1 1013653
22:00+6wsw2295100 0.3 101528
19 may, wed
wed1901:00+5wsw2296100 0.3 101514
04:00+6wnw499599 0.1 1016330
07:00+7wnw499598 0.3 1017494
10:00+10wnw687512 0.0 10181161
13:00+11wnw67626 0.1 10191604
16:00+11wnw67625 0.0 10201432
19:00+10wnw47764 0.0 1021995
22:00+5sw239687 0.0 102238
20 may, thu
thu2001:00+5s2298100 0.0 102122
04:00+5s2398100 0.0 102073
07:00+7s4990100 0.1 1017864
10:00+7sse81692100 0.4 1013970
13:00+8s101994100 1.3 10091169
16:00+9ssw12199154 0.7 10041277
19:00+9sw13209188 1.4 10021342
22:00+8sw142291100 0.4 10001342
21 may, fri
fri2101:00+7sw142296100 2.7 9971443
04:00+8sw132297100 5.1 9941535
07:00+8sw122096100 7.6 9931546
10:00+8wsw111797100 5.8 9931311
13:00+8w81297100 8.3 9931049
16:00+8w81298100 1.2 994986
19:00+7wnw71298100 2.4 996874
22:00+7wnw71198100 0.1 999686
22 may, sat
sat2201:00+6nw61097100 0.1 1001517
04:00+6nw3795100 0.1 1003438
07:00+6nw129396 0.3 1006253
10:00+8nw3380100 0.5 1008955
13:00+10nw667375 1.3 10091221
16:00+8wnw6668100 0.1 10111249
19:00+7wnw567041 0.1 10121043
22:00+2w2389100 0.0 101436